When you browse on this site, cookies collect data to enhance your experience and personalize the content and advertising you see.
Visit our Privacy Policy to learn more. By continuing to use the site, you agree to this use of cookies and data.
  • In Portugal
  • List of Countries
  • For 7 days
  • Water Temperature
  • Weather Map
  • Weather Widgets
  • user-avatar
    Login

    Hourly Weather Khashuri

    Today, 16 December, Monday

    Time Temperature Precipitation Wind Pressure Humidity
    00:00 -1°C° 0.1 mm 1 mps 612 mmHg 89%
    01:00 -1°C° 0.3 mm 1 mps 612 mmHg 90%
    02:00 -1°C° 0.3 mm 1 mps 612 mmHg 92%
    03:00 -1°C° 0.3 mm 1 mps 613 mmHg 94%
    04:00 -1°C° 0.4 mm 1 mps 613 mmHg 95%
    05:00 -1°C° 0.4 mm 1 mps 613 mmHg 95%
    06:00 -1°C° 0.4 mm 1 mps 613 mmHg 96%
    07:00 -1°C° 0.1 mm 1 mps 614 mmHg 95%
    08:00 -1°C° 0.1 mm 1 mps 614 mmHg 94%
    09:00 0°C° 0.1 mm 1 mps 614 mmHg 93%
    10:00 0°C° 0.1 mm 1 mps 615 mmHg 93%
    11:00 +1°C° 0.1 mm 1 mps 615 mmHg 93%
    12:00 +1°C° 0.1 mm 1 mps 615 mmHg 92%
    13:00 +1°C° 0.4 mm 1 mps 615 mmHg 94%
    14:00 +1°C° 0.4 mm 1 mps 615 mmHg 96%
    15:00 +1°C° 0.4 mm 1 mps 615 mmHg 98%
    16:00 +1°C° 0.3 mm 1 mps 615 mmHg 98%
    17:00 0°C° 0.3 mm 1 mps 615 mmHg 98%
    18:00 0°C° 0.3 mm 1 mps 615 mmHg 98%
    19:00 0°C° 0.3 mm 1 mps 615 mmHg 98%
    20:00 -1°C° 0.3 mm 1 mps 616 mmHg 97%
    21:00 -1°C° 0.3 mm 1 mps 616 mmHg 96%
    22:00 -2°C° 0 mm 1 mps 616 mmHg 95%
    23:00 -2°C° 0 mm 1 mps 616 mmHg 95%

    Tomorrow, 17 December, Tuesday

    Time Temperature Precipitation Wind Pressure Humidity
    00:00 -2°C° 0 mm 1 mps 616 mmHg 94%
    01:00 -3°C° 0 mm 1 mps 616 mmHg 93%
    02:00 -3°C° 0 mm 1 mps 616 mmHg 92%
    03:00 -3°C° 0 mm 1 mps 616 mmHg 91%
    04:00 -4°C° 0 mm 1 mps 615 mmHg 89%
    05:00 -4°C° 0 mm 1 mps 615 mmHg 88%
    06:00 -4°C° 0 mm 1 mps 615 mmHg 87%
    07:00 -4°C° 0 mm 1 mps 615 mmHg 85%
    08:00 -3°C° 0 mm 1 mps 616 mmHg 83%
    09:00 -3°C° 0 mm 1 mps 616 mmHg 82%
    10:00 -2°C° 0 mm 1 mps 616 mmHg 80%
    11:00 -1°C° 0 mm 1 mps 616 mmHg 79%
    12:00 +1°C° 0 mm 1 mps 616 mmHg 77%
    13:00 +1°C° 0 mm 1 mps 616 mmHg 78%
    14:00 +1°C° 0 mm 1 mps 616 mmHg 78%
    15:00 +1°C° 0 mm 1 mps 616 mmHg 78%
    16:00 0°C° 0 mm 1 mps 616 mmHg 76%
    17:00 -2°C° 0 mm 1 mps 616 mmHg 74%
    18:00 -3°C° 0 mm 1 mps 615 mmHg 72%
    19:00 -3°C° 0 mm 1 mps 616 mmHg 70%
    20:00 -3°C° 0 mm 1 mps 616 mmHg 69%
    21:00 -3°C° 0 mm 1 mps 616 mmHg 68%
    22:00 -3°C° 0 mm 1 mps 616 mmHg 67%
    23:00 -3°C° 0 mm 1 mps 617 mmHg 65%

    Day after tomorrow, 18 December, Wednesday

    Time Temperature Precipitation Wind Pressure Humidity
    00:00 -3°C° 0 mm 1 mps 617 mmHg 64%
    01:00 -3°C° 0 mm 1 mps 617 mmHg 63%
    02:00 -3°C° 0 mm 1 mps 617 mmHg 62%
    03:00 -3°C° 0 mm 1 mps 617 mmHg 61%
    04:00 -3°C° 0 mm 1 mps 617 mmHg 60%
    05:00 -4°C° 0 mm 1 mps 617 mmHg 59%
    06:00 -4°C° 0 mm 1 mps 617 mmHg 59%
    07:00 -3°C° 0 mm 1 mps 617 mmHg 59%
    08:00 -4°C° 0 mm 2 mps 617 mmHg 59%
    09:00 -4°C° 0 mm 2 mps 618 mmHg 59%
    10:00 0°C° 0 mm 1 mps 618 mmHg 61%
    11:00 +1°C° 0 mm 1 mps 618 mmHg 63%
    12:00 +2°C° 0 mm 1 mps 618 mmHg 65%
    13:00 +2°C° 0 mm 1 mps 618 mmHg 65%
    14:00 +2°C° 0 mm 1 mps 618 mmHg 66%
    15:00 +2°C° 0 mm 1 mps 617 mmHg 66%
    16:00 +1°C° 0 mm 1 mps 617 mmHg 65%
    17:00 0°C° 0 mm 1 mps 617 mmHg 64%
    18:00 -1°C° 0 mm 1 mps 617 mmHg 63%
    19:00 -1°C° 0 mm 1 mps 617 mmHg 63%
    20:00 -2°C° 0 mm 1 mps 617 mmHg 64%
    21:00 -4°C° 0 mm 2 mps 617 mmHg 64%
    22:00 -4°C° 0 mm 2 mps 617 mmHg 63%
    23:00 -4°C° 0 mm 2 mps 617 mmHg 63%

    19 December, Thursday

    Time Temperature Precipitation Wind Pressure Humidity
    00:00 -4°C° 0 mm 2 mps 617 mmHg 62%
    01:00 -4°C° 0 mm 2 mps 617 mmHg 61%
    02:00 -4°C° 0 mm 2 mps 617 mmHg 60%
    03:00 -4°C° 0 mm 2 mps 617 mmHg 60%
    04:00 -4°C° 0 mm 2 mps 617 mmHg 58%
    05:00 -4°C° 0 mm 2 mps 617 mmHg 57%
    06:00 -4°C° 0 mm 2 mps 617 mmHg 56%
    07:00 -3°C° 0 mm 2 mps 617 mmHg 55%
    08:00 -3°C° 0 mm 2 mps 617 mmHg 55%
    09:00 -2°C° 0 mm 2 mps 617 mmHg 54%
    10:00 -1°C° 0 mm 2 mps 618 mmHg 56%
    11:00 +2°C° 0 mm 1 mps 618 mmHg 58%
    12:00 +4°C° 0 mm 1 mps 618 mmHg 61%
    13:00 +4°C° 0 mm 1 mps 618 mmHg 60%
    14:00 +4°C° 0 mm 1 mps 617 mmHg 59%
    15:00 +4°C° 0 mm 1 mps 617 mmHg 58%
    16:00 +3°C° 0 mm 1 mps 617 mmHg 55%
    17:00 +1°C° 0 mm 2 mps 617 mmHg 53%
    18:00 -1°C° 0 mm 2 mps 616 mmHg 50%
    19:00 -1°C° 0 mm 2 mps 616 mmHg 50%
    20:00 -1°C° 0 mm 2 mps 616 mmHg 50%
    21:00 -1°C° 0 mm 2 mps 616 mmHg 50%
    22:00 -1°C° 0 mm 2 mps 616 mmHg 49%
    23:00 -1°C° 0 mm 2 mps 616 mmHg 49%

    20 December, Friday

    Time Temperature Precipitation Wind Pressure Humidity
    00:00 -1°C° 0 mm 2 mps 616 mmHg 49%
    01:00 -1°C° 0 mm 2 mps 616 mmHg 49%
    02:00 -1°C° 0 mm 2 mps 615 mmHg 49%
    03:00 -1°C° 0 mm 2 mps 615 mmHg 49%
    04:00 -1°C° 0 mm 2 mps 615 mmHg 48%
    05:00 -1°C° 0 mm 2 mps 615 mmHg 48%
    06:00 -1°C° 0 mm 2 mps 614 mmHg 48%
    07:00 +1°C° 0 mm 2 mps 615 mmHg 49%
    08:00 +1°C° 0 mm 2 mps 615 mmHg 49%
    09:00 +2°C° 0 mm 2 mps 615 mmHg 50%
    10:00 +3°C° 0 mm 2 mps 615 mmHg 53%
    11:00 +4°C° 0 mm 2 mps 615 mmHg 56%
    12:00 +5°C° 0 mm 2 mps 615 mmHg 59%
    13:00 +4°C° 0 mm 2 mps 614 mmHg 58%
    14:00 +4°C° 0 mm 2 mps 614 mmHg 58%
    15:00 +4°C° 0 mm 2 mps 613 mmHg 58%
    16:00 +3°C° 0 mm 2 mps 613 mmHg 55%
    17:00 +2°C° 0 mm 2 mps 613 mmHg 52%
    18:00 -1°C° 0 mm 2 mps 613 mmHg 50%
    19:00 -1°C° 0 mm 2 mps 612 mmHg 50%
    20:00 -1°C° 0 mm 2 mps 612 mmHg 50%
    21:00 -2°C° 0 mm 2 mps 612 mmHg 50%
    22:00 -2°C° 0 mm 2 mps 612 mmHg 50%
    23:00 -2°C° 0 mm 2 mps 612 mmHg 50%

    21 December, Saturday

    Time Temperature Precipitation Wind Pressure Humidity
    00:00 -2°C° 0 mm 2 mps 612 mmHg 51%
    01:00 -3°C° 0 mm 2 mps 612 mmHg 51%
    02:00 -1°C° 0 mm 1 mps 612 mmHg 51%
    03:00 -1°C° 0 mm 1 mps 611 mmHg 52%
    04:00 -1°C° 0 mm 1 mps 611 mmHg 52%
    05:00 -2°C° 0 mm 1 mps 611 mmHg 53%
    06:00 -2°C° 0 mm 1 mps 611 mmHg 53%
    07:00 -1°C° 0 mm 1 mps 612 mmHg 54%
    08:00 -1°C° 0 mm 1 mps 612 mmHg 54%
    09:00 0°C° 0 mm 1 mps 613 mmHg 55%
    10:00 +1°C° 0 mm 1 mps 613 mmHg 56%
    11:00 +2°C° 0 mm 1 mps 613 mmHg 57%
    12:00 +3°C° 0 mm 1 mps 613 mmHg 58%
    13:00 +3°C° 0 mm 1 mps 612 mmHg 59%
    14:00 +3°C° 0 mm 1 mps 612 mmHg 60%
    15:00 +2°C° 0 mm 1 mps 612 mmHg 61%
    16:00 +2°C° 0 mm 1 mps 612 mmHg 61%
    17:00 +1°C° 0 mm 1 mps 612 mmHg 60%
    18:00 -2°C° 0 mm 2 mps 612 mmHg 60%
    19:00 -2°C° 0 mm 2 mps 612 mmHg 60%
    20:00 -3°C° 0 mm 2 mps 612 mmHg 60%
    21:00 -3°C° 0 mm 2 mps 612 mmHg 60%
    22:00 -3°C° 0 mm 2 mps 612 mmHg 60%
    23:00 -3°C° 0 mm 2 mps 612 mmHg 59%
    Show more